Wind_Speed
42 42 41 40 41 41 42 42 43 44 45 46 48 50 51 52 53 54 55 57 57 58 59 59 60 60 60 61 63 63 64 64 64 64 65 65 65 65 65 65 64 64 64
41 41 41 41 42 43 44 45 45 46 48 50 51 52 54 56 57 58 59 60 60 60 60 60 61 61 62 62 62 63 63 63 62 61 61 62 62 62 61 61 61 61 60
40 41 42 43 44 45 46 47 48 50 52 54 55 57 59 60 60 61 61 60 60 60 60 61 61 62 62 62 61 61 61 61 60 59 59 59 58 58 57 56 55 53 52
42 43 43 45 46 48 49 51 53 55 57 58 59 60 61 61 61 61 61 60 61 61 61 61 61 60 60 59 59 58 58 59 58 57 56 54 53 52 50 48 46 45 43
43 44 46 47 49 50 51 53 55 56 57 58 58 58 59 59 60 60 60 61 61 61 60 59 58 57 57 56 56 56 56 56 54 51 49 47 46 45 44 42 40 37 37
42 44 46 47 49 50 50 51 51 52 53 55 55 56 57 58 59 59 59 59 59 58 57 55 54 54 54 54 55 54 52 49 46 44 42 41 40 39 37 35 33 32 32
41 42 43 44 45 46 47 48 49 50 52 54 55 55 56 56 57 57 57 56 55 55 54 52 52 51 51 50 49 46 44 41 39 37 35 34 32 30 28 27 28 28 29
39 40 41 42 43 44 45 47 48 49 50 52 53 54 55 55 54 54 54 53 52 51 50 48 47 46 45 43 40 37 35 34 32 30 29 27 24 23 23 23 24 24 25
37 38 39 40 41 42 43 45 46 47 48 49 50 50 51 50 50 50 49 48 47 45 43 42 40 39 36 33 30 29 28 27 25 23 21 20 19 20 20 21 21 21 22
34 35 36 38 39 40 41 42 43 45 46 46 46 46 45 45 43 42 41 40 38 37 35 33 31 29 26 24 23 22 21 20 19 17 17 17 18 18 18 19 19 19 19
32 33 34 35 36 37 38 39 41 41 41 41 41 40 39 38 36 34 32 30 29 27 25 23 21 19 17 17 16 16 15 14 14 14 15 15 16 16 17 17 18 18 18
28 29 31 32 33 34 35 36 36 36 36 35 34 33 31 30 28 26 23 21 19 17 15 14 12 11 11 10 10 10 10 11 11 12 13 14 15 15 16 16 17 18 19
25 26 28 29 30 31 32 32 32 32 31 30 28 26 24 22 20 17 15 13 12 10 8 7 6 6 6 7 7 8 9 10 11 11 12 14 15 15 15 16 17 18 19
23 24 25 26 27 27 27 27 27 27 25 24 22 20 18 16 13 11 10 8 7 5 4 3 4 4 5 6 7 8 9 10 11 11 12 14 15 16 16 17 18 19 19
22 23 23 23 24 24 25 24 23 22 21 20 18 16 14 12 10 8 6 5 4 4 5 5 6 6 7 8 8 9 11 11 12 12 13 15 16 17 17 18 18 19 19
20 20 20 21 21 22 22 21 20 19 18 16 14 12 10 8 7 6 6 6 6 7 7 8 8 8 9 9 10 11 12 13 13 14 15 15 16 17 18 18 18 19 19
18 18 18 18 18 18 18 18 17 16 15 13 11 10 8 8 7 7 7 8 8 8 9 9 9 10 11 11 11 12 13 14 15 16 16 17 17 17 18 19 19 19 19
16 15 15 15 16 16 15 15 15 14 13 12 10 9 9 8 8 8 9 9 9 9 10 10 11 11 12 12 13 14 15 16 17 17 18 18 18 19 19 19 19 19 18
14 13 13 13 13 14 14 13 13 12 11 11 10 9 9 9 9 9 10 10 10 10 10 11 11 12 12 13 14 14 15 16 17 18 19 19 19 19 19 19 19 19 18
12 11 11 11 11 12 12 11 11 10 10 10 10 10 10 10 10 11 11 11 11 11 11 11 11 11 12 13 14 15 16 17 18 18 19 19 20 20 19 19 20 19 18
10 10 9 9 10 10 10 10 9 9 9 9 10 10 10 11 11 12 12 12 11 11 11 11 11 11 12 13 14 15 16 17 18 19 19 19 19 20 20 19 19 19 19
10 9 8 8 8 8 9 9 8 8 8 9 9 10 11 11 12 12 12 11 11 11 11 11 11 11 12 13 14 15 16 18 18 19 18 19 19 20 20 20 19 19 19
10 9 8 7 7 7 7 7 7 7 8 8 9 9 10 11 11 11 11 10 10 10 10 11 11 12 12 13 14 16 17 17 18 18 18 19 19 19 19 20 19 19 19
10 9 8 6 6 6 6 6 6 7 7 8 8 9 9 9 9 9 9 9 9 10 10 10 11 12 13 14 15 16 17 17 17 18 18 18 19 19 19 19 19 19 19
9 9 8 7 6 5 5 6 6 6 7 7 7 8 8 8 8 9 9 9 9 10 10 11 12 13 14 15 16 17 17 18 18 18 19 19 19 19 19 20 20 20 20
11 10 9 8 7 7 6 6 6 6 7 7 7 7 8 8 8 9 9 9 10 10 11 11 12 13 13 14 15 16 17 18 18 19 19 19 20 20 20 20 20 20 20
Wind_Direction
275 276 276 277 279 280 281 283 284 284 285 286 287 288 288 289 289 289 289 290 291 291 291 291 291 291 291 291 291 291 290 290 290 290 289 289 289 289 289 289 289 289 289
273 274 276 278 279 280 281 283 284 284 284 284 286 288 288 288 288 288 289 290 290 291 291 291 291 291 291 291 291 291 291 291 291 291 291 291 291 291 291 291 291 291 290
272 274 276 278 279 280 281 282 283 283 284 285 286 286 287 287 288 288 289 289 290 290 291 291 291 292 292 292 292 292 293 293 293 293 292 292 292 292 293 293 293 292 292
271 273 275 277 279 280 281 282 282 282 283 284 285 286 286 287 288 289 289 289 290 290 291 291 292 292 292 292 293 293 293 294 294 294 294 294 294 295 295 296 296 296 295
272 273 275 276 277 279 281 282 282 283 283 284 286 286 286 286 287 288 289 289 289 290 290 291 291 291 292 292 292 293 294 294 294 295 296 296 297 297 298 298 298 297 297
274 275 276 277 278 279 281 283 284 285 286 287 287 288 288 288 288 289 289 289 289 289 289 290 290 291 292 292 293 294 294 295 296 297 298 299 299 299 299 299 299 299 299
277 280 282 282 283 284 285 288 289 289 289 289 289 289 289 289 289 288 287 287 288 288 289 290 290 291 292 293 294 295 296 297 299 300 301 302 302 303 303 304 304 305 305
282 284 286 288 290 291 290 291 291 291 291 291 290 290 290 289 289 288 288 288 288 288 288 289 290 292 293 294 296 297 299 301 303 304 305 307 309 309 311 312 312 312 312
287 288 290 292 292 292 292 292 293 293 294 293 293 293 292 291 290 289 289 288 288 288 289 290 291 292 294 295 297 299 302 305 307 310 312 315 317 319 321 322 323 323 322
292 293 294 294 294 294 295 296 296 296 296 297 296 296 295 294 293 292 292 291 290 289 289 291 292 293 294 297 300 304 307 311 315 318 322 325 327 329 331 332 333 333 332
296 297 297 297 297 298 299 300 300 301 301 300 300 299 298 297 296 296 295 293 292 291 292 292 293 294 297 301 306 311 315 320 324 328 332 335 337 338 340 342 343 344 343
299 300 301 302 302 302 303 304 305 305 306 305 304 302 301 301 300 299 298 296 296 296 295 296 298 302 306 314 322 328 333 337 339 342 344 346 346 346 348 350 351 351 351
304 306 307 308 308 309 310 310 311 311 311 310 310 309 308 307 306 305 305 306 308 307 306 311 317 324 334 342 348 351 353 353 353 355 355 355 356 356 356 356 356 357 357
309 311 314 315 317 318 319 318 318 318 318 317 317 318 318 317 317 317 318 322 328 335 344 357 10 19 18 15 13 11 8 6 6 4 3 2 3 3 2 2 1 0 1
313 315 318 321 324 325 326 326 327 326 326 326 326 327 328 331 334 339 348 4 25 46 60 60 54 48 42 35 30 25 20 16 12 9 8 8 8 8 7 6 6 5 5
318 320 323 326 329 330 332 334 336 336 337 339 341 343 347 356 7 20 38 55 66 73 73 69 63 56 48 43 36 29 24 20 16 13 12 10 10 11 10 9 9 9 10
322 325 328 332 335 337 340 343 345 347 351 357 2 9 18 28 38 51 65 72 75 75 73 69 63 57 52 46 39 32 27 23 19 17 15 13 12 11 11 11 12 12 13
324 328 331 335 340 344 347 350 353 356 3 11 19 27 36 46 58 69 75 76 76 76 73 69 64 59 52 45 39 33 29 26 23 20 18 16 15 13 12 13 14 16 17
327 330 334 339 343 347 350 354 359 4 12 21 28 35 45 57 67 73 76 76 76 76 73 68 62 55 48 41 35 31 28 25 21 18 17 16 14 13 14 15 16 18 20
333 334 336 341 347 353 357 1 8 14 21 29 37 47 56 66 71 74 76 77 77 75 70 63 55 49 42 36 31 27 23 20 18 16 15 15 16 16 17 18 20 22 24
343 343 342 347 353 359 5 12 19 28 35 42 51 58 65 70 74 76 78 78 75 70 63 55 48 42 37 33 29 25 22 20 18 16 17 18 19 20 21 22 24 27 30
353 353 350 349 355 4 13 20 28 38 47 53 59 64 69 72 75 77 76 73 68 62 56 49 43 40 36 30 27 25 22 20 19 19 20 22 23 25 26 28 30 32 33
1 360 357 356 3 13 22 28 37 47 55 59 62 67 72 73 73 73 72 68 62 56 51 47 43 38 33 30 29 26 23 23 23 23 24 26 27 29 31 33 35 36 37
9 7 6 10 19 26 32 39 47 55 60 63 65 69 71 71 69 68 64 59 55 51 48 46 42 39 37 35 31 29 27 27 27 27 29 31 32 34 35 36 37 38 40
20 20 24 29 37 43 49 55 60 62 64 65 66 68 69 68 66 64 61 57 55 52 51 49 46 45 42 38 35 33 32 33 33 34 35 36 36 37 38 39 40 42 44
35 36 40 46 52 57 63 68 69 68 67 67 67 69 70 69 68 65 63 61 59 58 56 52 49 45 41 38 37 37 38 38 38 38 39 39 39 39 41 42 43 45 46
Height
5794 5793 5791 5790 5789 5787 5785 5783 5781 5779 5776 5774 5771 5768 5765 5761 5758 5754 5751 5747 5743 5738 5734 5730 5725 5720 5715 5709 5704 5698 5692 5687 5683 5677 5669 5662 5655 5649 5643 5637 5631 5625 5619
5786 5784 5783 5781 5779 5777 5775 5773 5771 5768 5765 5762 5759 5755 5751 5748 5744 5740 5736 5732 5728 5723 5719 5714 5709 5704 5699 5693 5687 5681 5675 5670 5665 5660 5653 5645 5639 5632 5627 5621 5614 5608 5602
5777 5776 5774 5772 5770 5768 5765 5763 5760 5757 5753 5750 5746 5742 5738 5734 5730 5725 5721 5717 5712 5707 5702 5697 5692 5687 5682 5676 5671 5665 5660 5654 5648 5644 5637 5630 5623 5617 5612 5605 5599 5592 5586
5768 5766 5764 5762 5760 5758 5755 5752 5749 5745 5741 5737 5733 5728 5724 5719 5714 5710 5706 5701 5696 5691 5686 5681 5676 5671 5666 5661 5655 5650 5645 5639 5633 5628 5622 5615 5609 5603 5597 5592 5586 5580 5574
5758 5756 5754 5752 5750 5747 5743 5740 5736 5732 5728 5724 5719 5714 5709 5704 5699 5694 5689 5684 5680 5675 5670 5665 5661 5656 5651 5646 5641 5636 5631 5625 5619 5614 5608 5603 5597 5591 5586 5580 5575 5570 5564
5748 5746 5743 5741 5738 5735 5731 5727 5723 5719 5714 5710 5705 5700 5694 5689 5684 5678 5673 5668 5663 5659 5654 5650 5646 5642 5637 5632 5627 5622 5617 5613 5608 5602 5597 5592 5586 5581 5576 5571 5566 5562 5557
5738 5735 5733 5730 5726 5723 5719 5714 5710 5705 5701 5696 5690 5685 5679 5673 5667 5662 5657 5652 5648 5644 5640 5636 5632 5628 5623 5619 5614 5610 5606 5601 5597 5593 5588 5583 5578 5573 5569 5564 5559 5554 5549
5728 5725 5722 5718 5715 5711 5707 5702 5698 5693 5687 5682 5676 5670 5663 5657 5652 5646 5642 5637 5634 5630 5626 5623 5619 5616 5612 5608 5604 5600 5596 5593 5589 5585 5580 5576 5571 5567 5563 5559 5554 5549 5543
5718 5715 5711 5708 5704 5700 5695 5690 5685 5680 5674 5668 5661 5655 5648 5642 5637 5632 5627 5623 5620 5617 5614 5611 5608 5605 5602 5599 5596 5593 5589 5585 5582 5578 5575 5571 5567 5563 5558 5554 5549 5544 5539
5708 5705 5701 5697 5693 5689 5684 5678 5672 5667 5661 5654 5648 5641 5635 5629 5623 5619 5615 5611 5608 5605 5603 5601 5599 5597 5595 5593 5590 5587 5584 5580 5577 5574 5571 5567 5563 5559 5555 5551 5546 5541 5536
5699 5695 5692 5688 5683 5678 5672 5667 5661 5655 5649 5642 5636 5629 5623 5618 5613 5609 5605 5602 5599 5597 5596 5594 5593 5592 5590 5588 5586 5584 5581 5578 5575 5572 5569 5565 5561 5557 5553 5548 5544 5539 5534
5690 5687 5683 5678 5673 5668 5663 5657 5651 5644 5638 5631 5625 5620 5614 5609 5605 5601 5598 5595 5593 5592 5591 5590 5589 5588 5587 5586 5584 5581 5579 5576 5574 5571 5568 5564 5560 5556 5552 5547 5543 5538 5532
5683 5679 5675 5670 5664 5659 5653 5647 5641 5635 5629 5623 5617 5612 5607 5603 5599 5597 5594 5592 5591 5590 5589 5588 5587 5587 5586 5585 5583 5581 5578 5576 5573 5571 5567 5564 5560 5556 5551 5547 5542 5537 5532
5676 5672 5667 5662 5657 5651 5646 5640 5634 5629 5623 5617 5612 5608 5603 5600 5597 5594 5592 5591 5590 5589 5588 5588 5587 5587 5586 5584 5583 5581 5579 5576 5573 5571 5567 5564 5560 5555 5551 5546 5542 5537 5532
5670 5665 5660 5656 5651 5646 5640 5635 5629 5624 5618 5614 5609 5605 5602 5599 5596 5594 5592 5591 5590 5589 5589 5589 5588 5588 5587 5585 5584 5582 5579 5577 5574 5571 5567 5564 5560 5555 5551 5547 5542 5537 5532
5663 5659 5655 5651 5646 5642 5637 5631 5626 5621 5616 5612 5608 5604 5602 5599 5597 5595 5594 5593 5592 5591 5591 5591 5590 5589 5588 5587 5585 5583 5580 5578 5575 5571 5568 5564 5560 5556 5552 5547 5543 5538 5534
5658 5655 5651 5647 5643 5639 5634 5630 5625 5620 5616 5612 5608 5605 5603 5601 5599 5597 5596 5595 5595 5594 5594 5593 5592 5591 5590 5589 5587 5584 5582 5579 5576 5572 5569 5565 5561 5557 5553 5548 5544 5539 5535
5655 5651 5648 5645 5641 5637 5633 5629 5625 5621 5617 5613 5610 5608 5605 5603 5602 5600 5600 5599 5598 5598 5597 5596 5595 5594 5593 5591 5589 5587 5584 5581 5577 5574 5570 5566 5562 5558 5554 5550 5545 5541 5537
5651 5649 5646 5643 5640 5636 5632 5629 5625 5622 5618 5615 5613 5610 5608 5607 5605 5604 5603 5602 5602 5601 5600 5599 5598 5597 5596 5594 5591 5589 5586 5583 5579 5576 5572 5568 5564 5559 5555 5551 5547 5543 5539
5649 5646 5644 5641 5639 5635 5632 5629 5626 5623 5620 5618 5615 5613 5612 5610 5609 5608 5607 5606 5605 5605 5604 5603 5602 5600 5598 5596 5594 5591 5588 5585 5581 5577 5573 5569 5565 5561 5557 5553 5549 5545 5541
5647 5644 5642 5640 5638 5635 5632 5630 5627 5625 5623 5620 5618 5617 5615 5614 5613 5612 5611 5610 5609 5608 5607 5606 5605 5603 5601 5598 5596 5593 5590 5587 5583 5579 5575 5571 5567 5563 5559 5555 5552 5548 5544
5646 5643 5641 5639 5637 5635 5633 5631 5629 5627 5625 5623 5622 5620 5619 5618 5617 5616 5615 5614 5613 5612 5611 5609 5607 5605 5603 5601 5598 5595 5592 5589 5585 5581 5577 5574 5570 5566 5562 5558 5554 5551 5547
5645 5643 5641 5639 5637 5635 5634 5632 5630 5629 5628 5626 5625 5624 5623 5622 5621 5620 5619 5618 5617 5615 5614 5612 5610 5608 5606 5603 5600 5597 5594 5591 5587 5584 5580 5576 5572 5569 5565 5562 5558 5554 5551
5645 5643 5640 5638 5637 5636 5635 5634 5632 5631 5630 5629 5628 5627 5626 5625 5624 5623 5622 5621 5620 5618 5616 5615 5613 5611 5608 5606 5603 5600 5597 5593 5590 5586 5583 5579 5576 5572 5569 5565 5562 5558 5555
5645 5643 5641 5639 5638 5637 5636 5635 5634 5633 5632 5632 5631 5630 5629 5628 5627 5626 5625 5624 5622 5621 5619 5618 5616 5614 5611 5609 5606 5603 5600 5597 5593 5590 5586 5583 5579 5576 5573 5569 5566 5563 5560
5646 5644 5642 5641 5639 5638 5637 5637 5636 5635 5635 5634 5633 5632 5631 5631 5630 5629 5628 5626 5625 5624 5622 5620 5619 5617 5614 5612 5609 5606 5603 5600 5597 5594 5590 5587 5584 5580 5577 5574 5571 5567 5564